This is the latest recevied weather packets stored in our database for station/object PU5BHV. If no packets are shown the sender has not sent any weather packets the latest 10 day(s).
| Time | Temp. | Humidity | Pressure | Rain* | Wind** | Luminosity | Snow |
|---|---|---|---|---|---|---|---|
| 1778073793 | 21.67° C | 92% | 1021.7 hPa | 0 mm | - | 134 W/m² | - |
| 1778073491 | 21.67° C | 92% | 1021.4 hPa | 0 mm | - | 117 W/m² | - |
| 1778073187 | 21.67° C | 93% | 1021.5 hPa | 0 mm | - | 119 W/m² | - |
| 1778072884 | 21.67° C | 93% | 1021.7 hPa | 0 mm | - | 110 W/m² | - |
| 1778072581 | 21.67° C | 94% | 1021.6 hPa | 0 mm | - | 101 W/m² | - |
| 1778072279 | 21.11° C | 94% | 1021.5 hPa | 0 mm | - | 112 W/m² | - |
| 1778071976 | 21.11° C | 94% | 1021.5 hPa | 0 mm | - | 121 W/m² | - |
| 1778071675 | 21.11° C | 95% | 1021.4 hPa | 0 mm | - | 118 W/m² | - |
| 1778071372 | 21.11° C | 95% | 1021.6 hPa | 0 mm | - | 117 W/m² | - |
| 1778071069 | 21.11° C | 96% | 1021.5 hPa | 0 mm | - | 124 W/m² | - |
| 1778070768 | 20.56° C | 97% | 1021.4 hPa | 0 mm | - | 104 W/m² | - |
| 1778070464 | 20.56° C | 97% | 1021.5 hPa | 0 mm | - | 102 W/m² | - |
| 1778070161 | 20.56° C | 98% | 1021.6 hPa | 0 mm | - | 80 W/m² | - |
| 1778069860 | 20.56° C | 98% | 1021.9 hPa | 0 mm | - | 80 W/m² | - |
| 1778069556 | 20.56° C | 99% | 1021.7 hPa | 0 mm | - | 79 W/m² | - |
| 1778069253 | 20° C | 99% | 1021.5 hPa | 0 mm | - | 83 W/m² | - |
| 1778068951 | 20° C | 99% | 1021.3 hPa | 0 mm | - | 85 W/m² | - |
| 1778068649 | 20° C | 99% | 1021.5 hPa | 0 mm | - | 75 W/m² | - |
| 1778068347 | 20° C | 99% | 1021.3 hPa | 0 mm | - | 60 W/m² | - |
| 1778068044 | 20° C | 99% | 1021.3 hPa | 0 mm | - | 55 W/m² | - |
| 1778067742 | 20° C | 99% | 1021.1 hPa | 0 mm | - | 48 W/m² | - |
| 1778067440 | 20° C | 99% | 1021.2 hPa | 0 mm | - | 47 W/m² | - |
| 1778067137 | 20° C | 99% | 1021.2 hPa | 0 mm | - | 44 W/m² | - |
| 1778066833 | 20° C | 99% | 1021.2 hPa | 0 mm | - | 41 W/m² | - |
| 1778066531 | 20° C | 99% | 1021.2 hPa | 0 mm | - | 35 W/m² | - |
* Rain latest hour (hover to see other rain measurements)
** Current wind speed in m/s (hover to see current wind gust speed)